Location: Unnamed
(47.6264°N, 122.3366°W)
Time: 16:23:10
(UTC-08:00)

XW-2D - Pass Details

Date: 30 November 2023
Orbit: 440 x 449 km, 97.5° (Epoch: 02 March)

Event Time Altitude Azimuth Distance (km) Brightness Sun altitude
Rises 19:05:25 0° 214° (SW) 2,478 ? -27.1°
Reaches altitude 10° 19:08:35 10° 247° (WSW) 1,622 ? -27.6°
Maximum altitude 19:09:58 12° 271° (W) 1,514 ? -27.8°
Drops below altitude 10° 19:11:21 10° 294° (WNW) 1,638 ? -28.1°
Sets 19:14:37 0° 327° (NNW) 2,533 ? -28.6°
